Location: Newark
(39.6867°N, 100.6772°W)
Time: 15:17:26
(UTC+00:00)

Vanguard 1 - Pass Details

Date: 15 October 2019
Orbit: 652 x 3831 km, 34.2° (Epoch: 20 November)

Event Time Altitude Azimuth Distance (km) Brightness Sun altitude
Rises 03:28:02 0° 248° (WSW) 4,671 14.0 -39.0°
Reaches altitude 10° 03:30:33 10° 245° (WSW) 3,994 13.5 -39.5°
Enters shadow 03:41:00 67° 182° (S) 2,661 11.9 -41.3°
Maximum altitude 03:41:51 67° 165° (SSE) 2,713 - -41.4°
Drops below altitude 10° 04:02:07 10° 89° (E) 6,691 - -44.8°
Sets 04:07:52 0° 88° (E) 7,902 - -45.7°
